Location: Unspecified
(0.0000°N, 0.0000°E)
Time: 17:53:26
(UTC+00:00)

STARLINK 1065 - Pass Details

Date: 20 January 2020
Orbit: 548 x 551 km, 53.0° (Epoch: 17 January)

Event Time Altitude Azimuth Distance (km) Brightness Sun altitude
Rises 05:41:07 0° 217° (SW) 2,712 7.0 -7.0°
Reaches altitude 10° 05:43:21 10° 219° (SW) 1,817 6.1 -6.4°
Maximum altitude 05:47:28 73° 303° (WNW) 572 3.6 -5.5°
Drops below altitude 10° 05:51:34 10° 29° (NNE) 1,808 6.4 -4.5°
Sets 05:53:48 0° 31° (NNE) 2,698 7.3 -4.0°
